Weather History for KNUQ - March, 2007

Change the Weather History Date:

Saturday, March 17, 2007

  Actual Average Record
Temperature  
Mean Temperature 57 °F 56 °F  
Max Temperature 62 °F 65 °F 84 °F (2004)
Min Temperature 52 °F 47 °F 32 °F (1955)
Degree Days  
Heating Degree Days 8    
Month to date heating degree days  
Since 1 July heating degree days  
Cooling Degree Days 0    
Month to date cooling degree days  
Year to date cooling degree days  
Growing Degree Days 7 (Base 50)    
Moisture  
Dew Point 50 °F    
Average Humidity 78    
Maximum Humidity 88    
Minimum Humidity 67    
Precipitation  
Precipitation 0.00 in 0.07 in 0.78 in (1991)
Month to date precipitation 1.40  
Year to date precipitation 7.22  
Sea Level Pressure  
Sea Level Pressure 30.05 in    
Wind  
Wind Speed 3 mph (NNW)    
Max Wind Speed 17 mph    
Max Gust Speed -    
Visibility 10 miles    
Events      
T = Trace of Precipitation, MM = Missing Value Source: NWS Daily Summary

Daily Weather History Graph

Daily Weather History Graph

Search for Another Location

Airport or City:

Trip Planner

Search our weather history database for the weather conditions in past years. The results will help you decide how hot, cold, wet, or windy it might be!

Date:

Astronomy

Mar. 17, 2007 Rise Set
Actual Time 7:16 AM PDT 7:17 PM PDT
Civil Twilight 6:50 AM PDT 7:43 PM PDT
Nautical Twilight 6:20 AM PDT 8:13 PM PDT
Astronomical Twilight 5:49 AM PDT 8:44 PM PDT
Moon 6:31 AM PDT (3/17) 5:58 PM PDT (3/17)
Length of Visible Light 12h 52m
Length of Day
12h 00m
Waning Crescent, 3% of the Moon is Illuminated
Mar 17
Waning Crescent
Mar 18
New
Mar 25
First Quarter
Apr 2
Full
Apr 10
Last Quarter

Hourly Weather History & Observations

Time (PDT) Temp. Dew Point Humidity Pressure Visibility Wind Dir Wind Speed Gust Speed Precip Events Conditions
12:56 AM 60.1 °F 48.9 °F 67% 30.04 in 10.0 mi Calm Calm - N/A   Clear
1:56 AM 57.9 °F 48.9 °F 72% 30.04 in 10.0 mi Calm Calm - N/A   Clear
2:56 AM 55.0 °F 48.0 °F 77% 30.03 in 10.0 mi Calm Calm - N/A   Clear
3:56 AM 55.9 °F 50.0 °F 80% 30.02 in 10.0 mi Calm Calm - N/A   Clear
4:56 AM 54.0 °F 48.9 °F 83% 30.02 in 10.0 mi West 3.5 mph - N/A   Clear
5:36 AM 53.6 °F 48.2 °F 82% 30.02 in 10.0 mi West 3.5 mph - N/A   Partly Cloudy
5:56 AM 53.1 °F 48.0 °F 83% 30.03 in 10.0 mi Calm Calm - N/A   Partly Cloudy
6:13 AM 53.6 °F 48.2 °F 82% 30.03 in 10.0 mi Calm Calm - N/A   Mostly Cloudy
6:40 AM 53.6 °F 48.2 °F 82% 30.03 in 10.0 mi Calm Calm - N/A   Scattered Clouds
6:49 AM 53.6 °F 48.2 °F 82% 30.03 in 10.0 mi Calm Calm - N/A   Mostly Cloudy
6:56 AM 54.0 °F 48.9 °F 83% 30.04 in 10.0 mi Calm Calm - N/A   Mostly Cloudy
7:56 AM 54.0 °F 48.9 °F 83% 30.06 in 10.0 mi Calm Calm - N/A   Clear
8:45 AM 55.4 °F 51.8 °F 88% 30.06 in 7.0 mi Calm Calm - N/A   Mostly Cloudy
8:56 AM 55.0 °F 50.0 °F 83% 30.07 in 8.0 mi North 4.6 mph - N/A   Overcast
9:56 AM 55.9 °F 51.1 °F 84% 30.09 in 8.0 mi Calm Calm - N/A   Overcast
10:56 AM 57.0 °F 51.1 °F 81% 30.09 in 10.0 mi North 4.6 mph - N/A   Overcast
11:34 AM 60.8 °F 51.8 °F 72% 30.08 in 10.0 mi North 4.6 mph - N/A   Partly Cloudy
11:56 AM 61.0 °F 51.1 °F 70% 30.08 in 10.0 mi North 5.8 mph - N/A   Clear
12:56 PM 61.0 °F 52.0 °F 72% 30.08 in 10.0 mi NNW 11.5 mph - N/A   Clear
1:56 PM 61.0 °F 52.0 °F 72% 30.06 in 10.0 mi NNW 12.7 mph - N/A   Clear
2:56 PM 61.0 °F 52.0 °F 72% 30.04 in 10.0 mi North 15.0 mph - N/A   Clear
3:56 PM 62.1 °F 52.0 °F 70% 30.04 in 10.0 mi North 17.3 mph - N/A   Clear
4:56 PM 61.0 °F 52.0 °F 72% 30.03 in 10.0 mi North 12.7 mph - N/A   Clear
5:56 PM 61.0 °F 50.0 °F 67% 30.03 in 10.0 mi NNW 12.7 mph - N/A   Clear
6:56 PM 57.0 °F 50.0 °F 77% 30.03 in 10.0 mi NNW 11.5 mph - N/A   Clear
7:56 PM 55.0 °F 48.9 °F 80% 30.04 in 10.0 mi NNW 4.6 mph - N/A   Clear
8:56 PM 53.1 °F 48.0 °F 83% 30.06 in 10.0 mi North 3.5 mph - N/A   Clear
9:56 PM 53.1 °F 46.9 °F 80% 30.07 in 10.0 mi North 3.5 mph - N/A   Clear
10:56 PM 52.0 °F 46.0 °F 80% 30.07 in 10.0 mi Calm Calm - N/A   Clear
11:56 PM 53.1 °F 46.9 °F 80% 30.07 in 10.0 mi Calm Calm - N/A   Clear